Time,TemperatureF,DewpointF,PressureIn,WindDirection,WindDirectionDegrees,WindSpeedMPH,WindSpeedGustMPH,Humidity,HourlyPrecipIn,Conditions,Clouds,dailyrainin,SoftwareType,DateUTC
2013-03-03 00:01:00,47.0,-99.9,-100.00,NW,305,12.0,20.0,-999,-99.99,,,-99.99,,2013-03-03 08:01:00,
2013-03-03 00:11:00,47.0,-99.9,-100.00,NW,305,12.0,20.0,-999,-99.99,,,-99.99,,2013-03-03 08:11:00,
2013-03-03 00:54:00,43.0,-99.9,-100.00,West,271,8.0,12.0,-999,-99.99,,,-99.99,,2013-03-03 08:54:00,
2013-03-03 01:02:00,43.0,-99.9,-100.00,West,271,8.0,12.0,-999,-99.99,,,-99.99,,2013-03-03 09:02:00,
2013-03-03 01:12:00,43.0,-99.9,-100.00,West,271,8.0,12.0,-999,-99.99,,,-99.99,,2013-03-03 09:12:00,
2013-03-03 02:01:00,40.0,-99.9,-100.00,NW,305,5.0,10.0,-999,-99.99,,,-99.99,,2013-03-03 10:01:00,
2013-03-03 02:12:00,40.0,-99.9,-100.00,NW,305,5.0,10.0,-999,-99.99,,,-99.99,,2013-03-03 10:12:00,
2013-03-03 02:52:00,38.0,-99.9,-100.00,NW,325,6.0,12.0,-999,-99.99,,,-99.99,,2013-03-03 10:52:00,
2013-03-03 03:02:00,38.0,-99.9,-100.00,NW,325,6.0,12.0,-999,-99.99,,,-99.99,,2013-03-03 11:02:00,
2013-03-03 03:11:00,38.0,-99.9,-100.00,NW,325,6.0,12.0,-999,-99.99,,,-99.99,,2013-03-03 11:11:00,
2013-03-03 03:53:00,39.0,-99.9,-100.00,West,277,7.0,12.0,-999,-99.99,,,-99.99,,2013-03-03 11:53:00,
2013-03-03 04:02:00,39.0,-99.9,-100.00,West,277,7.0,12.0,-999,-99.99,,,-99.99,,2013-03-03 12:02:00,
2013-03-03 04:11:00,39.0,-99.9,-100.00,West,277,7.0,12.0,-999,-99.99,,,-99.99,,2013-03-03 12:11:00,
2013-03-03 05:02:00,39.0,-99.9,-100.00,WNW,283,9.0,15.0,-999,-99.99,,,-99.99,,2013-03-03 13:02:00,
2013-03-03 05:11:00,39.0,-99.9,-100.00,WNW,283,9.0,15.0,-999,-99.99,,,-99.99,,2013-03-03 13:11:00,
2013-03-03 06:02:00,41.0,-99.9,-100.00,NW,309,10.0,18.0,-999,-99.99,,,-99.99,,2013-03-03 14:02:00,
2013-03-03 06:11:00,41.0,-99.9,-100.00,NW,309,10.0,18.0,-999,-99.99,,,-99.99,,2013-03-03 14:11:00,
2013-03-03 07:02:00,38.0,-99.9,-100.00,WNW,299,8.0,15.0,-999,-99.99,,,-99.99,,2013-03-03 15:02:00,
2013-03-03 07:11:00,38.0,-99.9,-100.00,WNW,299,8.0,15.0,-999,-99.99,,,-99.99,,2013-03-03 15:11:00,
2013-03-03 08:02:00,37.0,-99.9,-100.00,West,263,13.0,20.0,-999,-99.99,,,-99.99,,2013-03-03 16:02:00,
2013-03-03 08:12:00,37.0,-99.9,-100.00,West,263,13.0,20.0,-999,-99.99,,,-99.99,,2013-03-03 16:12:00,
2013-03-03 09:01:00,44.0,-99.9,-100.00,West,266,15.0,28.0,-999,-99.99,,,-99.99,,2013-03-03 17:01:00,
2013-03-03 09:12:00,44.0,-99.9,-100.00,West,266,15.0,28.0,-999,-99.99,,,-99.99,,2013-03-03 17:12:00,
2013-03-03 10:02:00,47.0,-99.9,-100.00,West,264,17.0,30.0,-999,-99.99,,,-99.99,,2013-03-03 18:02:00,
2013-03-03 10:11:00,47.0,-99.9,-100.00,West,264,17.0,30.0,-999,-99.99,,,-99.99,,2013-03-03 18:11:00,
2013-03-03 11:02:00,49.0,-99.9,-100.00,West,271,17.0,27.0,-999,-99.99,,,-99.99,,2013-03-03 19:02:00,
2013-03-03 11:11:00,49.0,-99.9,-100.00,West,271,17.0,27.0,-999,-99.99,,,-99.99,,2013-03-03 19:11:00,
2013-03-03 12:02:00,52.0,-99.9,-100.00,West,272,16.0,25.0,-999,-99.99,,,-99.99,,2013-03-03 20:02:00,
2013-03-03 12:12:00,52.0,-99.9,-100.00,West,272,16.0,25.0,-999,-99.99,,,-99.99,,2013-03-03 20:12:00,
2013-03-03 13:02:00,53.0,-99.9,-100.00,WNW,290,15.0,28.0,-999,-99.99,,,-99.99,,2013-03-03 21:02:00,
2013-03-03 13:12:00,53.0,-99.9,-100.00,WNW,290,15.0,28.0,-999,-99.99,,,-99.99,,2013-03-03 21:12:00,
2013-03-03 13:52:00,54.0,-99.9,-100.00,WNW,298,15.0,27.0,-999,-99.99,,,-99.99,,2013-03-03 21:52:00,
2013-03-03 14:02:00,54.0,-99.9,-100.00,WNW,298,15.0,27.0,-999,-99.99,,,-99.99,,2013-03-03 22:02:00,
2013-03-03 14:11:00,54.0,-99.9,-100.00,WNW,298,15.0,27.0,-999,-99.99,,,-99.99,,2013-03-03 22:11:00,
2013-03-03 15:02:00,54.0,-99.9,-100.00,NW,319,18.0,31.0,-999,-99.99,,,-99.99,,2013-03-03 23:02:00,
2013-03-03 15:12:00,54.0,-99.9,-100.00,NW,319,18.0,31.0,-999,-99.99,,,-99.99,,2013-03-03 23:12:00,
2013-03-03 16:02:00,53.0,-99.9,-100.00,NW,325,17.0,32.0,-999,-99.99,,,-99.99,,2013-03-04 00:02:00,
2013-03-03 16:11:00,53.0,-99.9,-100.00,NW,325,17.0,32.0,-999,-99.99,,,-99.99,,2013-03-04 00:11:00,
2013-03-03 17:02:00,51.0,-99.9,-100.00,NW,312,18.0,28.0,-999,-99.99,,,-99.99,,2013-03-04 01:02:00,
2013-03-03 17:12:00,51.0,-99.9,-100.00,NW,312,18.0,28.0,-999,-99.99,,,-99.99,,2013-03-04 01:12:00,
2013-03-03 17:52:00,48.0,-99.9,-100.00,NW,315,17.0,29.0,-999,-99.99,,,-99.99,,2013-03-04 01:52:00,
2013-03-03 18:02:00,48.0,-99.9,-100.00,NW,315,17.0,29.0,-999,-99.99,,,-99.99,,2013-03-04 02:02:00,
2013-03-03 18:11:00,48.0,-99.9,-100.00,NW,315,17.0,29.0,-999,-99.99,,,-99.99,,2013-03-04 02:11:00,
2013-03-03 18:53:00,44.0,-99.9,-100.00,NW,316,13.0,23.0,-999,-99.99,,,-99.99,,2013-03-04 02:53:00,
2013-03-03 19:02:00,44.0,-99.9,-100.00,NW,316,13.0,23.0,-999,-99.99,,,-99.99,,2013-03-04 03:02:00,
2013-03-03 19:12:00,44.0,-99.9,-100.00,NW,316,13.0,23.0,-999,-99.99,,,-99.99,,2013-03-04 03:12:00,
2013-03-03 19:53:00,43.0,-99.9,-100.00,NW,311,14.0,25.0,-999,-99.99,,,-99.99,,2013-03-04 03:53:00,
2013-03-03 20:02:00,43.0,-99.9,-100.00,NW,311,14.0,25.0,-999,-99.99,,,-99.99,,2013-03-04 04:02:00,
2013-03-03 20:11:00,43.0,-99.9,-100.00,NW,311,14.0,25.0,-999,-99.99,,,-99.99,,2013-03-04 04:11:00,
2013-03-03 21:02:00,41.0,-99.9,-100.00,West,274,8.0,15.0,-999,-99.99,,,-99.99,,2013-03-04 05:02:00,
2013-03-03 21:11:00,41.0,-99.9,-100.00,West,274,8.0,15.0,-999,-99.99,,,-99.99,,2013-03-04 05:11:00,
2013-03-03 22:02:00,38.0,-99.9,-100.00,WSW,237,3.0,5.0,-999,-99.99,,,-99.99,,2013-03-04 06:02:00,
2013-03-03 22:11:00,38.0,-99.9,-100.00,WSW,237,3.0,5.0,-999,-99.99,,,-99.99,,2013-03-04 06:11:00,
2013-03-03 23:02:00,41.0,-99.9,-100.00,WNW,290,7.0,13.0,-999,-99.99,,,-99.99,,2013-03-04 07:02:00,
2013-03-03 23:11:00,41.0,-99.9,-100.00,WNW,290,7.0,13.0,-999,-99.99,,,-99.99,,2013-03-04 07:11:00,
2013-03-03 23:52:00,37.0,-99.9,-100.00,West,265,3.0,7.0,-999,-99.99,,,-99.99,,2013-03-04 07:52:00,